Showing default

NAVSTAR 70 (USA 251), 39741

Orbit data source: Space-Track

NAVSTAR 70 (USA 251), 39741 is a payload satellite owned by USAF SMC (US) in MEO that was launched on Sat, 17 May 2014 UTC via a DELTA 4M+(4,2) launch vehicle from the Air Force Eastern Test Range (AFETR). Payload-class satellites include a variety of spacecraft equipped with specific instruments for various scientific and technological missions. These include communications satellites like Starlink; space stations such as the ISS; scientific satellites like the Hubble; Earth observation satellites from companies like Planet Labs, Umbra, and HawkEye 360; GPS; miniature CubeSats for education and research; and military/defense satellites.

Loading next visibility...
Identifier
39741, 2014-026A
Orbit
MEO
Country
Flag of USUS
Related business
Manufacturer
Boeing/ES
Mission
Operational Defense Navigation
Bus & Motor
GPS IIF, AOCS
Mass
1,630 kg wet, ~1,500 kg dry
Launch date (UTC)
2014-05-17 (11 years ago)
Launch vehicle
DELTA 4M+(4,2)
Launch site
Air Force Eastern Test Range (AFETR)
Object type
Payload
Rocket body
Debris
Shape & HBR
Box + 2 Pan, Unknown HBR
Radar Cross Section
13.960 m², Large (>1 m²)

Expand to show TLE details & history
Last TLE update: 13 hours ago

TLE from 13 hours ago
0 NAVSTAR 70 (USA 251)
1 39741U 14026A   25261.23640133 -.00000104  00000-0  00000-0 0  9991
2 39741  56.6143 342.1033 0036042 317.0218  42.7420  2.00567395 83089
Epoch: 2025-09-18T05:40Z
TLE epoch observation values (Epoch: 2025-09-18T05:40:25.074Z)
Latitude
-0.00001°
Longitude
-100.3969°
Altitude
20,111.902 km
Speed
3.884 km/s
True Right ascension
22h 48m 26s
True Declination
0° 00' 00"
Sunlit
Object was in partial shadow at epoch
Visualization orbit readout
Latitude
Unknown
Longitude
Unknown
Altitude
Unknown
Speed
Unknown
Apparent Right ascension
Unknown
Apparent Declination
Unknown
Sunlit
N/A
Visualization observer readout
Local Sidereal Time
11:35:10
Azimuth
Unknown
Elevation
Unknown
Doppler factor
Unknown
Orbital elements
Apogee altitude
20,277.544 km
Perigee altitude
20,086.089 km
Semi-major axis
26,559.953 km
Eccentricity
0.0036
Inclination
56.6143°
RAAN
342.1033°
Arg. of periapsis
317.0218°
True anomaly
43.02324°
Mean anomaly
42.742°
Eccentric anomaly
42.88253°
Mean motion
0.50142 °/min
Orbital period
717.96 mins
BSTAR
0
Loading maneuver chart data...
Computing Atmospheric mass density...

Documentation

Showing up to 5 results
|